Погода в Рославле

Погода в Рославле : погода сейчас, прогноз погоды и архив. Всё, что Вы хотите узнать о погоде в Рославле!

Хотите узнать прогноз погоды в Рославле? Тогда Вам сюда: Погода в Рославле

Поиск расширенной информации на нашем сайте:

Другие новости

Новости СМИ2

Главная страница сайта

Новости сайта

03.07.2017

Напоминаем, что на нашем специализированном сайте Метеоцентр.Азия вы можете получить высокодетализированные автоматические прогнозы погоды по пунктам России, СНГ и мира в авиационном формате (включающие направление и скорость ветра, видимость, явления погоды, количество и форму облачности, нижнюю и верхнюю границу облачности).

Рекомендуем: аренда дома одесса

Погода в Рославле - сегодня

Время (UTC), дата Ветер
(°,м/с) 
Видим.   Явления Облачность Т
(°С)
Тd
(°С)
f(%) Тe
(°С)
Pmin
(гПа)
dP
(гПа)
Po
(мм)
O2
(г/м3)
Тmin Tmax R s Состояние
почвы
21 12.02.18 110 (В) 50000 м    ясно 
-8.6 -12.5 73 -10  1020.3  0.4  743  310           
00 13.02.18 100 (В) 50000 м    ясно 
-10.5 -13.3 80 -12  1021.3  0.7  744  313           
09 13.02.18 120 (ЮВ) 20000 м    5/0 верхняя 
[Ci fib]
-7.4 -12.6 66 -9  1022.7  0.7  745  310           
12 13.02.18 120 (ЮВ) 20000 м    4/0 верхняя 
[Ci fib]
-3.7 -10.3 60 -6  1022  -0.2  745  305           
15 13.02.18 100 (В) 20000 м    4/0 верхняя 
[Ci fib]
-5.5 -10 71 -7  1022.4  -0.2  745  307           
21 13.02.18 100 (В) 50000 м    9/0 средняя 
[Ac trans]
-8.4 -11.4 79 -11  1023.5  0.1  746  311           
00 14.02.18 110 (В) 50000 м    9/0 средняя 
[Ac trans]
-9.2 -11.9 81 -12  1024.1  0.5  746  312           
03 14.02.18 090 (В) 8000 м  слаб. снег  10/0 средняя 
[Ac As]
-9.8 -11.6 87 -12  1024.3  0.1  746  313  -9.8    0.0     
06 14.02.18 090 (В) 5000 м  слаб. снег  10/0 средняя 
[Ac As]
-10 -11.8 87 -13  1025  0.6  747  313  -10.1    0.7  28  неравномерный
мокрый или
старый снег
100% 
09 14.02.18 100 (В) 6000 м  слаб. снег  10/0 средняя 
[Ac As]
-8.6 -11.1 82 -10  1026.2  1.4  748  312           
21 14.02.18 110 (В) 15000 м  {снег}  9/0 средняя 
[Ac und]
-7.9 -9.9 86 -9  1029.2  0.8  750  312           
03 15.02.18 100 (В) 15000 м    9/0 средняя 
[Ac und]
-8.4 -10.4 85 -10  1030.2  0.4  751  313  -8.4    0.3     
09 15.02.18 110 (В) 19000 м    10/0 средняя 
[Ac As]
-6.9 -9.7 80 -10  1031.7  0.7  752  312           
12 15.02.18 110 (В) 18000 м    10/0 средняя 
[Ac As]
-5.6 -8.7 79 -8  1031.6  0.1  752  310           
15 15.02.18 100 (В) 16000 м    10/0 средняя 
[Ac As]
-5.5 -7.9 83 -7  1031.6  0.1  752  310           
21 15.02.18 130 (ЮВ) 18000 м    9/0 средняя 
[Ac und]
-5.2 -7 87 -8  1031.5  -0.2  752  310           
00 16.02.18 120 (ЮВ) 17000 м    10/0 средняя 
[Ac As]
-5.4 -6.9 89 -8  1031.3  -0.3  752  310           
03 16.02.18 120 (ЮВ) 21000 м    9/4 300 м средняя 
[Sc|Ac und]
-5.5 -6.9 90 -7  1030.9  -0.3  751  310  -5.5         
06 16.02.18 130 (ЮВ) 12000 м    9/8 300 м средняя 
[Sc|Ac und]
-5.5 -6.8 91 -7  1030.6  -0.3  751  310  -5.6      30  неравномерный
мокрый или
старый снег
100% 
09 16.02.18 140 (ЮВ) 12000 м    10/4 300 м средняя 
[Cu hum|Ac As]
-4.1 -6.4 84 -6  1029.4  -1  750  308           
12 16.02.18 120 (ЮВ) 16000 м    10/3 300 м средняя 
[Cu hum|Ac As]
-3.4 -5.7 84 -6  1028.6  -0.7  750  307           
21 16.02.18 160 (Ю) 9000 м  слаб. снег  10/5 300 м средняя 
[Frnb|Ac As]
-3 -3.7 95 -4  1026.1  -0.6  748  305           
03 17.02.18 130 (ЮВ) 4500 м  слаб. снег  10/10 360 м 
[Frnb|Ns]
-3.5 -3.9 97 -5  1023.7  -1.3  746  305  -3.5       
06 17.02.18 130 (ЮВ) 2400 м  снег  10/10 270 м 
[Frnb|Ns]
-3.2 -3.7 96 -4  1023.1  -0.5  746  305  -3.5    32  неравномерный
мокрый или
старый снег
100% 
21 17.02.18 160 (Ю) 14000 м    9/0 средняя 
[Ac und]
-1.7 -3.6 87 -3  1019.4  -0.7  743  302           
Время (UTC), дата Ветер
(°,м/с) 
Видим.   Явления Облачность Т
(°С)
Тd
(°С)
f(%) Тe
(°С)
Pmin
(гПа)
dP
(гПа)
Po
(мм)
O2
(г/м3)
Тmin Tmax R s Состояние
почвы

Для получения пояснительной информации подведите курсор к названию столбца.

ПОГОДА в Рославле - архив

Всё, что Вы хотите узнать о погоде в Рославле - удобно и подробно!

Выберите нужную дату (начиная с 1 января 2015* года) и нажмите кнопку "Найти".
Будут отображены архивные сводки погоды по пункту Рославль, начиная с указанной даты.


Отображать данные в формате CSV (для использования в таблицах Excel)


Внимание! Наш архив погоды предназначен исключительно для личного некоммерческого использования в познавательных целях. Если Вам необходимы официальные справки о состоянии погоды (для производственных, юридических, коммерческих и т.п. целей), обращайтесь в органы Росгидромета.

*Примечание: данная дата относится к архиву по метеостанциям СССР (Россия, СНГ, Балтия).
Архив по метеостанциям Зарубежной Европы и Азии (кроме Китая) хранится 10 дней, по другим регионам земного шара (Китай, Африка, Америка, Австралия, Океания) - 1 день.

Рославль - район местоположения метеостанции


Название, широта, долгота, высота метеостанции:
Рославль 53.9°ш. 32.8°д. 224 м над ур. моря [Российская Федерация]

Дополнительная информация

В oтличие oт бoльшинства пoгoдных сайтoв мы публикуем пoдрoбную метеoинфoрмацию в детальнoм прoфессиoнальнoм фoрмате.

Характеристики температуры и влажнoсти вoздуха измеряются на высoте 2 м в тени вдали oт зданий и деревьев.
Скoрoсть ветра измеряется на высoте 10 м (на урoвне рoста челoвека скoрoсть ветра ниже в 1.5-2 раза). Если метеoстанция нахoдится в гoрoде или в лесу, тo скoрoсть ветра занижена на 2-4 м/с пo сравнению с oткрытым местoм. Скoрoсть ветра над акватoриями крупных рек и oзёр, а также на вершинах хoлмoв на 2-5 м/с выше, чем в oбычных услoвиях.
Атмoсфернoе давление в разных тoчках местнoсти мoжет значительнo oтличаться oт давления на метеoстанции, в зависимoсти oт услoвий рельефа (при пoдъёме на 10 м давление пoнижается примернo на 1 мм рт.ст.).